Regional Weather Roundup
Issued by NWS Sioux Falls, SD

Home | Current Version | Previous Version | Text Only | Print | Product List | Glossary Off
Versions: 1 2 3 4 5 6 7 8 9 10 11 12 13 14 15 16 17 18 19 20 21 22 23 24 25 26 27 28 29 30 31 32 33 34 35 36 37 38 39 40 41 42 43 44 45 46 47 48 49 50

292
ASUS43 KFSD 280710
RWRFSD

WEATHER ROUNDUP FOR SE SOUTH DAKOTA/SW MINNESOTA/NW IOWA
NATIONAL WEATHER SERVICE SIOUX FALLS SD
200 AM CDT WED JUN 28 2017

NOTE: "FAIR" INDICATES FEW OR NO CLOUDS BELOW 12,000 FEET WITH NO
SIGNIFICANT WEATHER AND OR OBSTRUCTIONS TO VISIBILITY.


SDZ038>040-050-052>070-280800-
SOUTHEAST SOUTH DAKOTA

CITY           SKY/WX    TMP DP  RH WIND       PRES   REMARKS
BROOKINGS      CLOUDY    70  64  83 S20G26    29.61R
CHAMBERLAIN    CLOUDY    73  55  54 CALM      29.58R
HURON          CLOUDY    72  57  59 SW14      29.50R
MADISON        LGT RAIN  66  66 100 S16G24    29.63R
MITCHELL       CLOUDY    69  64  84 S20       29.55F
SIOUX FALLS    LGT RAIN  66  66 100 S8        29.65F
WINNER         FAIR      72  53  51 SW8       29.59F
YANKTON        CLOUDY    65  63  93 S3        29.68F
$$

MNZ071-072-080-081-089-090-097-098-280800-
SOUTHWEST MINNESOTA

CITY           SKY/WX    TMP DP  RH WIND       PRES   REMARKS
FAIRMONT       LGT RAIN  67  58  72 S22G29    29.67F
LUVERNE        TSTM      64  63  94 E9        29.65F
MARSHALL       CLOUDY    67  62  84 S18G26    29.61F
MONTEVIDEO     CLOUDY    70  55  60 S15G24    29.60S THUNDER
PIPESTONE      TSTM      66  63  88 S10G21    29.66R
REDWOOD FALLS  TSTM      63  58  83 S24G30    29.65F
TRACY          CLOUDY    66  63  89 S17G31    29.63F
WINDOM         TSTM      64  61  88 S17G26    29.72S
WORTHINGTON    HVY RAIN  64  64 100 E15       29.69F FOG
$$

IAZ001>003-012>014-020>022-031-032-NEZ013-014-SDZ071-280800-
NORTHWEST IOWA

CITY           SKY/WX    TMP DP  RH WIND       PRES   REMARKS
CHEROKEE       CLOUDY    70  67  88 S13G18    29.67R
DENISON        CLOUDY    73  64  73 S23G39    29.73R
ESTHERVILLE    TSTM      68  63  84 S21G33    29.69R
LE MARS        CLOUDY    75  66  73 S23G36    29.64S
ORANGE CITY    CLOUDY    72  66  83 S23G36    29.65R
SHELDON        CLOUDY    70  66  88 S9G18     29.64R
SIOUX CITY     LGT RAIN  72  67  84 SW6       29.67F
SPENCER        TSTM      64  64 100 SE28G40   29.68F FOG
STORM LAKE     CLOUDY    70  64  83 S25G32    29.65F
$$

ABBREVIATIONS USED IN REMARKS
   TC - TEMPERATURE IN CELSIUS
  WCI - WIND CHILL INDEX
   HX - HEAT INDEX
  VSB - VISIBILITY





USA.gov is the U.S. government's official web portal to all federal, state and local government web resources and services.